Voltar ao catálogo

Sitro-AIS-60

AtivoComunicaçõesSSO
NORAD 67260·PAYLOAD·🇷🇺 Russia

Lançado Dec 28, 2025 de Vostochny Cosmodrome

Loading…

Próximas Passagens (próximas 24 horas)

TLE

AtualizadoSource: Space-Track

Época: Sep 14, 2026, 15:10 UTC

1 67260U 25313N   26257.63213456  .00005551  00000-0  23733-3 0  9994
2 67260  97.3872 330.7165 0014534  54.2342 306.0243 15.23150553 39551

Acompanhe Sitro-AIS-60 em tempo real com AllMySat

Download on the App Store